Flag for Australia Weather past 2 weeks in Hobart, Tasmania, Australia

Now
43 °F

Passing clouds.


Feels Like: 39 °F
Forecast: 35 / 56 °F
Wind: 6 mph from Northwest

Location: Hobart Airport

Current Time: Jul 26, 2014 at 11:33:48 PM

Latest Report: Jul 26, 2014 at 11:00 PM


Visibility: N/A

Pressure: 30.15 "Hg

Humidity: 93%

Dew point: 41 °F

Location of HobartLocation

Historic Weather in Hobart — Graph

°F

Hobart temperature yesterday

Maximum temperature yesterday: 57 °F (at 1:30 PM)
Minimum temperature yesterday: 37 °F (at 4:00 AM)
Average temperature yesterday: 46 °F

Past Weeks' High & Low Weather Summary

 TemperatureHumidityPressure
High59 °F (Jul 16, 12:00 PM)100% (Jul 14, 8:00 PM)30.42 "Hg (Jul 14, 8:00 PM)
Low34 °F (Jul 21, 7:00 AM)46% (Jul 12, 1:00 PM)29.36 "Hg (Jul 17, 1:30 PM)
Average46 °F78%30.08 "Hg
* Reported Jul 11 10:00 PM — Jul 26 10:00 PM, Hobart, Weather by CustomWeather, © 2014

Note: Actual official high and low records may vary slightly from our data, if they occured in-between our weather recording intervals... More about our weather records

Advertising

Hobart weather history for previous 24 hours

 ConditionsComfort  
Time TempWeatherWind HumidityBarometerVisibility
10:00 PM
Jul 26
43 °FPassing clouds.8 mph100%30.15 "HgN/A
9:30 PM43 °FPassing clouds.6 mph100%30.15 "HgN/A
9:00 PM45 °FClear.7 mph93%30.15 "Hg10 mi
8:30 PM45 °FClear.8 mph93%30.15 "Hg10 mi
8:00 PM45 °FLight fog.5 mph100%30.12 "HgN/A
7:30 PM43 °FFog.1 mph100%30.12 "HgN/A
7:00 PM46 °FLight fog.2 mph100%30.12 "HgN/A
6:30 PM46 °FPassing clouds.No wind93%30.12 "HgN/A
6:00 PM48 °FPassing clouds.No wind87%30.12 "HgN/A
5:30 PM50 °FPassing clouds.No wind88%30.12 "HgN/A
5:00 PM50 °FPassing clouds.No wind88%30.12 "HgN/A
4:30 PM52 °FPassing clouds.5 mph82%30.09 "HgN/A
4:00 PM54 °FPassing clouds.6 mph82%30.09 "HgN/A
3:30 PM55 °FPassing clouds.6 mph72%30.09 "HgN/A
3:00 PM55 °FPassing clouds.5 mph72%30.09 "HgN/A
2:30 PM55 °FPassing clouds.6 mph72%30.09 "HgN/A
2:00 PM55 °FPassing clouds.6 mph72%30.09 "HgN/A
1:30 PM55 °FPassing clouds.1 mph72%30.09 "HgN/A
1:00 PM55 °FPassing clouds.5 mph72%30.09 "HgN/A
12:30 PM52 °FPassing clouds.3 mph82%30.12 "HgN/A
12:00 PM52 °FPassing clouds.5 mph77%30.12 "HgN/A
11:30 AM54 °FPassing clouds.3 mph72%30.12 "HgN/A
11:00 AM50 °FPassing clouds.6 mph82%30.15 "HgN/A
10:30 AM50 °FPassing clouds.7 mph82%30.15 "HgN/A
10:00 AM48 °FPassing clouds.6 mph87%30.15 "HgN/A
9:30 AM46 °FPassing clouds.7 mph87%30.15 "HgN/A
9:00 AM45 °FPassing clouds.2 mph93%30.12 "HgN/A
8:30 AM45 °FPassing clouds.6 mph93%30.12 "HgN/A
8:00 AM43 °FFog.3 mph93%30.12 "HgN/A
7:30 AM43 °FFog.3 mph93%30.12 "HgN/A
7:00 AM43 °FFog.7 mph93%30.09 "HgN/A
6:30 AM41 °FFog.6 mph100%30.09 "HgN/A
6:00 AM41 °FPassing clouds.6 mph100%30.09 "HgN/A
5:30 AM41 °FPassing clouds.1 mph93%30.09 "HgN/A
5:00 AM43 °FPassing clouds.5 mph93%30.09 "HgN/A
4:30 AM45 °FPassing clouds.2 mph93%30.09 "HgN/A
4:00 AM43 °FClear.7 mph100%30.09 "Hg10 mi
3:30 AM43 °FClear.3 mph93%30.09 "Hg10 mi
3:00 AM43 °FClear.6 mph93%30.09 "Hg10 mi
2:30 AM43 °FClear.5 mph93%30.09 "Hg10 mi
2:00 AM43 °FClear.5 mph93%30.09 "Hg10 mi
1:30 AM43 °FClear.8 mph93%30.09 "Hg10 mi
1:00 AM43 °FClear.7 mph93%30.07 "Hg10 mi
12:30 AM43 °FClear.5 mph93%30.09 "Hg10 mi
12:00 AM43 °FFog.5 mph100%30.09 "HgN/A
11:00 PM
Jul 25
43 °FFog.6 mph100%30.09 "HgN/A
Weather by CustomWeather, © 2014

See weather overviewHow to use our weather pages